Tracking 19832 objects as of 25-Aug-2019
HD Live streaming from Space Station
objects crossing your sky now

FENGYUN 1C DEB

Track FENGYUN 1C DEB now!
10-day predictions


NORAD ID: 30483
Int'l Code: 1999-025AGV
Perigee: 512.5 km
Apogee: 645.3 km
Inclination: 99.0 °
Period: 96.1 minutes
Semi major axis: 6949 km
RCS: 0.0087 m2 (small)
Launch date: May 10, 1999
Source: People's Republic of China (PRC)
Launch site: Taiyaun Space Center, China (TSC)

Note: This is SATELLITE DEBRIS
aabbcc
Your satellite tracking list
Your tracking list is empty




NASA's NSSDC Master Catalog

Two Line Element Set (TLE):
1 30483U 99025AGV 19237.21665233  .00002718  00000-0  21372-3 0  9999
2 30483  98.9615 326.4318 0095549 213.9199 145.5887 14.98430023670949
Source of the keplerian elements: AFSPC